sat.trackr.live / text

‹ back to catalog

STARLINK-35622

NORAD 66103 · 2025-236T

PAYLOAD ACTIVE UNKNOWN

§ Identity

Operator
Country
US
Launch date
2025-10-19
Launch site
AFWTR
Launch vehicle
Mass (kg)
RCS (m²)

Purposes: comms

External: N2YO · Heavens-Above · Gunter

§ Orbital elements

Epoch: 2026-05-25T04:13:30.586080Z

Period
94.11 min
Inclination
53.1576°
Eccentricity
0.0001085
Mean motion
15.30204011 rev/d
Perigee alt
474.5 km
Apogee alt
475.9 km
Semi-major
6,853.3 km
B*
5.1177e-4
RAAN
108.6944°
Arg perigee
86.6682°
Mean anomaly
273.4443°
Rev number
3,465

§ Raw data

STARLINK-356221 66103U 25236T   26145.17604845  .00014830  00000+0  51177-3 0  99962 66103  53.1576 108.6944 0001085  86.6682 273.4443 15.30204011 34659

JSON: /api/v1/satellites/66103 · /tle

For live sub-satellite position, see the globe view (requires WebGL).

§ Visibility from observer

Set your observer location to see the next 7 days of passes ≥ 10°. The values pass through the URL so the page stays shareable.

No JS? Fill the form by hand. The geolocation button needs JavaScript.